Change the Weather History Date:

Tuesday, April 2, 2013

  Actual Average Record
Temperature  
Mean Temperature 39 °F 51 °F  
Max Temperature 47 °F 60 °F 87 °F (2010)
Min Temperature 30 °F 41 °F 22 °F (1992)
Degree Days  
Heating Degree Days 26 15  
Month to date heating degree days 47 30  
Since 1 July heating degree days 4302 4139  
Cooling Degree Days 0 0  
Month to date cooling degree days 0 0  
Year to date cooling degree days 1 4  
Moisture  
Dew Point 14 °F    
Average Humidity 42    
Maximum Humidity 64    
Minimum Humidity 19    
Precipitation  
Precipitation 0.00 in 0.11 in 1.15 in (2005)
Month to date precipitation 0.04 0.21  
Year to date precipitation 11.13 9.38  
Snow  
Snow 0.00 in - - ()
Month to date snowfall 0.0  
Since 1 July snowfall 55.1  
Snow Depth 0.00 in    
Sea Level Pressure  
Sea Level Pressure 30.10 in    
Wind  
Wind Speed 9 mph (WNW)    
Max Wind Speed 20 mph    
Max Gust Speed 28 mph    
Visibility 10 miles    
Events      
T = Trace of Precipitation, MM = Missing Value Source: NWS Daily Summary

Daily Weather History Graph

Daily Weather History Graph

Search for Another Location

Airport or City:

Trip Planner

Search our weather history database for the weather conditions in past years. The results will help you decide how hot, cold, wet, or windy it might be!

Date:

Astronomy

Apr. 02, 2013 Rise Set
Actual Time 7:08 AM EDT 7:48 PM EDT
Civil Twilight 6:42 AM EDT 8:14 PM EDT
Nautical Twilight 6:11 AM EDT 8:46 PM EDT
Astronomical Twilight 5:39 AM EDT 9:17 PM EDT
Moon 1:46 AM EDT (4/2) 12:03 PM EDT (4/2)
Length of Visible Light 13h 32m
Length of Day
12h 40m
Waning Gibbous, 56% of the Moon is Illuminated
Apr 2
Waning Gibbous
Apr 3
Last Quarter
Apr 10
New
Apr 18
First Quarter
Apr 25
Full

Hourly Weather History & Observations

Time (EDT) Temp. Windchill Dew Point Humidity Pressure Visibility Wind Dir Wind Speed Gust Speed Precip Events Conditions
12:52 AM 36.0 °F 33.3 °F 25.0 °F 64% 30.02 in 10.0 mi WNW 3.5 mph - N/A   Overcast
1:52 AM 36.0 °F 30.3 °F 23.0 °F 59% 30.01 in 10.0 mi WNW 6.9 mph - N/A   Overcast
2:52 AM 34.0 °F 28.8 °F 21.9 °F 61% 30.01 in 10.0 mi NW 5.8 mph - N/A   Overcast
3:52 AM 33.1 °F 30.0 °F 19.9 °F 59% 30.02 in 10.0 mi NW 3.5 mph - N/A   Mostly Cloudy
4:52 AM 32.0 °F 26.4 °F 19.0 °F 59% 30.03 in 10.0 mi WNW 5.8 mph - N/A   Overcast
5:52 AM 32.0 °F 26.4 °F 18.0 °F 56% 30.05 in 10.0 mi WNW 5.8 mph - N/A   Overcast
6:52 AM 30.9 °F 22.8 °F 17.1 °F 57% 30.09 in 10.0 mi NW 9.2 mph - N/A   Overcast
7:52 AM 30.9 °F 24.3 °F 17.1 °F 57% 30.13 in 10.0 mi WNW 6.9 mph - N/A   Mostly Cloudy
8:52 AM 32.0 °F 25.6 °F 17.1 °F 54% 30.14 in 10.0 mi WNW 6.9 mph - N/A   Clear
9:52 AM 34.0 °F 25.5 °F 16.0 °F 48% 30.16 in 10.0 mi WNW 11.5 mph 19.6 mph N/A   Partly Cloudy
10:52 AM 36.0 °F 26.7 °F 15.1 °F 43% 30.16 in 10.0 mi West 15.0 mph 25.3 mph N/A   Partly Cloudy
11:52 AM 37.9 °F 30.5 °F 15.1 °F 39% 30.16 in 10.0 mi West 11.5 mph 19.6 mph N/A   Clear
1:52 PM 41.0 °F 34.3 °F 10.9 °F 29% 30.13 in 10.0 mi WNW 11.5 mph 24.2 mph N/A   Clear
2:52 PM 44.1 °F 37.4 °F 8.1 °F 23% 30.11 in 10.0 mi WNW 13.8 mph 21.9 mph N/A   Clear
3:52 PM 45.0 °F 38.5 °F 5.0 °F 19% 30.09 in 10.0 mi West 13.8 mph 24.2 mph N/A   Clear
4:52 PM 46.0 °F 40.2 °F 6.1 °F 20% 30.09 in 10.0 mi West 12.7 mph 20.7 mph N/A   Clear
5:52 PM 45.0 °F 38.9 °F 8.1 °F 22% 30.09 in 10.0 mi WNW 12.7 mph 18.4 mph N/A   Clear
6:52 PM 44.1 °F 39.0 °F 8.1 °F 23% 30.12 in 10.0 mi WNW 9.2 mph 18.4 mph N/A   Clear
7:52 PM 41.0 °F 35.2 °F 8.1 °F 26% 30.12 in 10.0 mi WNW 9.2 mph - N/A   Clear
8:52 PM 39.0 °F - 8.1 °F 28% 30.14 in 10.0 mi Calm Calm - N/A   Clear
9:52 PM 37.0 °F 33.3 °F 9.0 °F 31% 30.16 in 10.0 mi West 4.6 mph - N/A   Clear
10:52 PM 37.0 °F 32.4 °F 8.1 °F 30% 30.17 in 10.0 mi WNW 5.8 mph - N/A   Clear